When you browse on this site, cookies collect data to enhance your experience and personalize the content and advertising you see.
Visit our Privacy Policy to learn more. By continuing to use the site, you agree to this use of cookies and data.
  • In Germany
  • List of Countries
  • For 7 days
  • Water Temperature
  • Weather Map
  • Weather Widgets
  • user-avatar
    Login

    Hourly Weather Lankaran

    Today, 20 November, Wednesday

    Time Temperature Precipitation Wind Pressure Humidity
    00:00 +1°C° 0.1 mm 2 mps 636 mmHg 87%
    01:00 -1°C° 0 mm 2 mps 635 mmHg 85%
    02:00 -1°C° 0 mm 2 mps 635 mmHg 84%
    03:00 -1°C° 0 mm 2 mps 635 mmHg 81%
    04:00 -1°C° 0 mm 2 mps 635 mmHg 79%
    05:00 -2°C° 0 mm 2 mps 635 mmHg 77%
    06:00 0°C° 0 mm 1 mps 635 mmHg 75%
    07:00 +1°C° 0 mm 1 mps 635 mmHg 70%
    08:00 +3°C° 0 mm 1 mps 636 mmHg 64%
    09:00 +4°C° 0 mm 1 mps 636 mmHg 61%
    10:00 +4°C° 0 mm 1 mps 636 mmHg 61%
    11:00 +4°C° 0 mm 2 mps 636 mmHg 60%
    12:00 +5°C° 0 mm 2 mps 637 mmHg 60%
    13:00 +4°C° 0 mm 2 mps 636 mmHg 65%
    14:00 +4°C° 0 mm 2 mps 636 mmHg 70%
    15:00 +4°C° 0 mm 2 mps 636 mmHg 75%
    16:00 +3°C° 0 mm 2 mps 636 mmHg 80%
    17:00 +2°C° 0 mm 2 mps 636 mmHg 85%
    18:00 +1°C° 0 mm 2 mps 636 mmHg 89%
    19:00 +1°C° 0.1 mm 2 mps 636 mmHg 89%
    20:00 +1°C° 0.1 mm 2 mps 636 mmHg 90%
    21:00 +1°C° 0.1 mm 2 mps 636 mmHg 90%
    22:00 +1°C° 0.4 mm 2 mps 635 mmHg 89%
    23:00 +1°C° 0.4 mm 2 mps 635 mmHg 89%

    Tomorrow, 21 November, Thursday

    Time Temperature Precipitation Wind Pressure Humidity
    00:00 +1°C° 0.4 mm 2 mps 635 mmHg 89%
    01:00 -1°C° 0.3 mm 2 mps 635 mmHg 89%
    02:00 -1°C° 0.3 mm 2 mps 635 mmHg 90%
    03:00 -1°C° 0.3 mm 2 mps 635 mmHg 90%
    04:00 -1°C° 0.2 mm 2 mps 635 mmHg 90%
    05:00 -1°C° 0.2 mm 2 mps 635 mmHg 91%
    06:00 -1°C° 0.2 mm 2 mps 635 mmHg 91%
    07:00 -1°C° 0.5 mm 2 mps 636 mmHg 91%
    08:00 -1°C° 0.5 mm 2 mps 636 mmHg 91%
    09:00 -1°C° 0.5 mm 3 mps 636 mmHg 91%
    10:00 -1°C° 0.6 mm 3 mps 636 mmHg 91%
    11:00 -1°C° 0.6 mm 3 mps 636 mmHg 91%
    12:00 -1°C° 0.6 mm 3 mps 635 mmHg 92%
    13:00 -1°C° 0.6 mm 3 mps 635 mmHg 92%
    14:00 -1°C° 0.6 mm 3 mps 635 mmHg 93%
    15:00 -1°C° 0.6 mm 3 mps 635 mmHg 93%
    16:00 -1°C° 0.6 mm 3 mps 635 mmHg 94%
    17:00 -2°C° 0.6 mm 3 mps 636 mmHg 94%
    18:00 -2°C° 0.6 mm 3 mps 636 mmHg 95%
    19:00 -2°C° 0.8 mm 3 mps 636 mmHg 95%
    20:00 -2°C° 0.8 mm 3 mps 636 mmHg 95%
    21:00 -2°C° 0.8 mm 3 mps 637 mmHg 95%
    22:00 -2°C° 0.7 mm 3 mps 637 mmHg 95%
    23:00 -4°C° 0.7 mm 3 mps 636 mmHg 95%

    Day after tomorrow, 22 November, Friday

    Time Temperature Precipitation Wind Pressure Humidity
    00:00 -4°C° 0.7 mm 3 mps 636 mmHg 95%
    01:00 -3°C° 0.6 mm 2 mps 636 mmHg 95%
    02:00 -3°C° 0.6 mm 2 mps 636 mmHg 95%
    03:00 -3°C° 0.6 mm 2 mps 636 mmHg 95%
    04:00 -3°C° 0.5 mm 2 mps 636 mmHg 95%
    05:00 -3°C° 0.5 mm 2 mps 636 mmHg 95%
    06:00 -3°C° 0.5 mm 2 mps 636 mmHg 95%
    07:00 -3°C° 0.6 mm 2 mps 637 mmHg 94%
    08:00 -3°C° 0.6 mm 2 mps 637 mmHg 93%
    09:00 -3°C° 0.6 mm 2 mps 638 mmHg 92%
    10:00 -4°C° 0.8 mm 3 mps 637 mmHg 92%
    11:00 -2°C° 0.8 mm 3 mps 637 mmHg 92%
    12:00 -2°C° 0.8 mm 3 mps 637 mmHg 92%
    13:00 -4°C° 0.7 mm 3 mps 637 mmHg 92%
    14:00 -4°C° 0.7 mm 3 mps 637 mmHg 92%
    15:00 -4°C° 0.7 mm 3 mps 637 mmHg 91%
    16:00 -4°C° 0.5 mm 3 mps 637 mmHg 92%
    17:00 -3°C° 0.5 mm 2 mps 637 mmHg 93%
    18:00 -4°C° 0.5 mm 2 mps 638 mmHg 94%
    19:00 -4°C° 0.6 mm 2 mps 638 mmHg 94%
    20:00 -4°C° 0.6 mm 2 mps 638 mmHg 94%
    21:00 -4°C° 0.6 mm 2 mps 638 mmHg 95%
    22:00 -4°C° 0.6 mm 2 mps 638 mmHg 95%
    23:00 -4°C° 0.6 mm 2 mps 638 mmHg 95%

    23 November, Saturday

    Time Temperature Precipitation Wind Pressure Humidity
    00:00 -3°C° 0.6 mm 2 mps 638 mmHg 95%
    01:00 -3°C° 0.9 mm 2 mps 638 mmHg 95%
    02:00 -3°C° 0.9 mm 2 mps 638 mmHg 95%
    03:00 -1°C° 0.9 mm 1 mps 638 mmHg 95%
    04:00 -3°C° 1.3 mm 2 mps 638 mmHg 96%
    05:00 -3°C° 1.3 mm 2 mps 638 mmHg 96%
    06:00 -3°C° 1.3 mm 2 mps 638 mmHg 97%
    07:00 -3°C° 1.5 mm 2 mps 639 mmHg 96%
    08:00 -3°C° 1.5 mm 2 mps 639 mmHg 95%
    09:00 -2°C° 1.5 mm 3 mps 639 mmHg 95%
    10:00 -2°C° 1.3 mm 3 mps 639 mmHg 94%
    11:00 -2°C° 1.3 mm 3 mps 639 mmHg 94%
    12:00 -2°C° 1.3 mm 3 mps 639 mmHg 93%
    13:00 -2°C° 0.9 mm 3 mps 638 mmHg 94%
    14:00 -2°C° 0.9 mm 3 mps 638 mmHg 94%
    15:00 -2°C° 0.9 mm 2 mps 638 mmHg 94%
    16:00 -2°C° 0.8 mm 2 mps 638 mmHg 95%
    17:00 -2°C° 0.8 mm 2 mps 638 mmHg 96%
    18:00 0°C° 0.8 mm 1 mps 638 mmHg 97%
    19:00 0°C° 1 mm 1 mps 638 mmHg 97%
    20:00 0°C° 1 mm 1 mps 639 mmHg 97%
    21:00 0°C° 1 mm 1 mps 639 mmHg 97%
    22:00 0°C° 0.8 mm 1 mps 639 mmHg 97%
    23:00 0°C° 0.8 mm 1 mps 638 mmHg 97%

    24 November, Sunday

    Time Temperature Precipitation Wind Pressure Humidity
    00:00 0°C° 0.8 mm 1 mps 638 mmHg 97%
    01:00 0°C° 0.5 mm 1 mps 638 mmHg 97%
    02:00 0°C° 0.5 mm 1 mps 638 mmHg 96%
    03:00 -1°C° 0.5 mm 0 mps 638 mmHg 96%
    04:00 0°C° 0.2 mm 1 mps 638 mmHg 95%
    05:00 0°C° 0.2 mm 1 mps 638 mmHg 94%
    06:00 -1°C° 0.2 mm 1 mps 638 mmHg 94%
    07:00 0°C° 0.1 mm 1 mps 638 mmHg 92%
    08:00 0°C° 0.1 mm 1 mps 638 mmHg 89%
    09:00 0°C° 0.1 mm 1 mps 638 mmHg 87%
    10:00 -1°C° 0 mm 2 mps 638 mmHg 87%
    11:00 -1°C° 0 mm 2 mps 637 mmHg 87%
    12:00 -1°C° 0 mm 2 mps 637 mmHg 87%
    13:00 -1°C° 0 mm 2 mps 637 mmHg 88%
    14:00 -1°C° 0 mm 2 mps 637 mmHg 89%
    15:00 -1°C° 0 mm 2 mps 636 mmHg 90%
    16:00 -2°C° 0 mm 2 mps 636 mmHg 91%
    17:00 -2°C° 0 mm 2 mps 636 mmHg 93%
    18:00 0°C° 0 mm 1 mps 636 mmHg 94%
    19:00 0°C° 0 mm 1 mps 636 mmHg 93%
    20:00 -1°C° 0 mm 1 mps 636 mmHg 92%
    21:00 -1°C° 0 mm 1 mps 636 mmHg 91%
    22:00 -1°C° 0 mm 1 mps 636 mmHg 91%
    23:00 -1°C° 0 mm 1 mps 635 mmHg 90%

    25 November, Monday

    Time Temperature Precipitation Wind Pressure Humidity
    00:00 -2°C° 0 mm 0 mps 635 mmHg 89%
    01:00 -1°C° 0 mm 1 mps 635 mmHg 89%
    02:00 -1°C° 0 mm 1 mps 635 mmHg 90%
    03:00 -1°C° 0 mm 1 mps 635 mmHg 90%
    04:00 -1°C° 0 mm 1 mps 635 mmHg 90%
    05:00 -1°C° 0 mm 1 mps 635 mmHg 91%
    06:00 -1°C° 0 mm 1 mps 635 mmHg 91%
    07:00 0°C° 0 mm 1 mps 635 mmHg 90%
    08:00 0°C° 0 mm 1 mps 636 mmHg 89%
    09:00 +1°C° 0 mm 1 mps 636 mmHg 87%
    10:00 +1°C° 0 mm 1 mps 636 mmHg 86%
    11:00 +1°C° 0 mm 1 mps 636 mmHg 85%
    12:00 +1°C° 0 mm 2 mps 635 mmHg 84%
    13:00 +1°C° 0 mm 2 mps 635 mmHg 85%
    14:00 +1°C° 0 mm 2 mps 635 mmHg 86%
    15:00 -1°C° 0 mm 2 mps 635 mmHg 87%
    16:00 +1°C° 0 mm 1 mps 635 mmHg 89%
    17:00 0°C° 0 mm 1 mps 635 mmHg 91%
    18:00 0°C° 0 mm 1 mps 635 mmHg 93%
    19:00 0°C° 0 mm 1 mps 635 mmHg 92%
    20:00 -1°C° 0 mm 0 mps 635 mmHg 91%
    21:00 -1°C° 0 mm 0 mps 635 mmHg 90%
    22:00 -1°C° 0 mm 0 mps 635 mmHg 90%
    23:00 -1°C° 0 mm 0 mps 634 mmHg 90%
    Show more